Location: *
(51.0333°S, 178.4667°E)
Time: 01:28:11
(UTC+00:00)

Daily predictions for brighter satellites

Satellite Brightness Start Highest point End
(mag) Time Altitude Azimuth Time Altitude Azimuth Time Altitude Azimuth
Cosmos 158 Rocket 4.3 06:35:45 10° N 06:40:17 38° ENE 06:44:52 10° SE
Okean-O 3.8 06:37:04 10° SE 06:40:38 22° E 06:44:10 10° NE
DMSP B5D2-2 4.1 06:36:56 10° NNE 06:42:11 74° ESE 06:47:30 10° SSW
CORIOLIS 4.2 06:36:58 10° SSE 06:42:31 68° ENE 06:47:58 10° N
Cosmos 2297 4.3 06:38:35 10° SW 06:44:21 63° WNW 06:50:02 10° NNE
Cosmos 1025 Rocket 4.3 06:42:13 10° NE 06:45:31 21° E 06:48:49 10° SE
H-2A R/B 4.1 06:42:28 10° S 06:46:16 39° WSW 06:49:55 10° NW
Cosmos 1707 3.8 06:43:38 10° NNE 06:46:56 26° E 06:50:18 10° SSE
CZ-2D R/B 4.2 06:44:37 10° SE 06:48:03 27° E 06:51:25 10° NNE
Cosmos 1842 3.3 06:44:46 10° N 06:48:45 68° E 06:52:47 10° SSE
Cosmos 724 4.5 06:46:49 10° NNW 06:52:52 60° ENE 06:58:52 10° SE
CZ-2C R/B 2.9 06:48:47 10° NNE 06:54:20 82° WNW 06:59:50 10° SSW
YAOGAN 6 3.8 06:51:29 10° S 06:55:03 47° WSW 06:58:31 10° NW
Tsikada Rocket 4.4 06:50:15 10° NNW 06:56:38 74° WSW 07:03:09 10° S
Meteor 2-10 4.3 06:53:03 10° S 06:58:47 62° ESE 07:04:31 10° NNE
Helios 1A Rocket 3.3 06:58:57 10° SSE 07:02:52 40° E 07:06:45 10° N
Cosmos 1953 3.1 06:59:31 10° S 07:03:22 34° ESE 07:07:08 10° NE
Okean O Rocket 2.4 06:59:00 10° S 07:03:26 59° WSW 07:07:51 10° NNW
SL-24 R/B 4.5 06:59:02 10° SSE 07:03:55 51° E 07:08:18 10° N
SL-24 R/B - RUBIN 2 4.4 07:00:27 10° SSW 07:04:32 38° SE 07:08:22 13° ENE
FALCON 9 DEB 3.0 07:01:42 10° WNW 07:05:02 88° S 07:08:19 10° ESE
CZ-2C R/B 3.9 07:01:44 10° SE 07:05:45 25° E 07:09:48 10° NNE
Cosmos 1656 Rocket 4.0 07:00:52 10° SSW 07:06:14 48° SE 07:11:18 11° NE
Cosmos 1455 Rocket 3.2 07:06:48 10° S 07:11:23 90° SSW 07:15:54 10° N
ERBS 2.5 07:09:38 10° SW 07:13:03 61° SSE 07:15:32 17° ENE
Cosmos 1371 Rocket 4.0 07:08:17 10° SSW 07:13:39 87° ESE 07:18:59 10° NNE
CZ-4 R/B 1.9 07:11:22 10° SSE 07:15:23 41° E 07:19:25 10° N
Genesis I 3.3 07:12:31 10° SW 07:16:31 81° NW 07:20:12 12° NE
Lacrosse 5 2.5 07:11:32 10° WSW 07:16:36 55° NW 07:21:36 10° NE
H-2A R/B 4.2 07:14:31 13° NE 07:17:45 34° ESE 07:21:33 10° S
FALCON 9 DEB 3.1 07:16:20 10° WNW 07:19:41 78° SSW 07:22:25 15° ESE
Cosmos 1943 Rocket 2.8 07:14:11 10° SW 07:19:49 61° WNW 07:25:25 10° NNE
SeaSat 1 2.9 07:15:35 10° SE 07:20:16 39° ENE 07:24:54 10° N
Nadezhda 4 Rocket 4.4 07:15:34 10° NNE 07:21:25 42° E 07:27:22 10° SSE
EO 1 Delta rocket 3.9 07:17:43 10° NNE 07:22:20 60° ESE 07:27:07 10° S
Cosmos 2112 Rocket 4.0 07:17:54 10° NNW 07:23:14 69° ENE 07:28:40 10° SSE
Cosmos 1680 Rocket 3.5 07:18:55 10° NNW 07:24:16 80° ENE 07:29:42 10° SSE
GEOS 3 Rocket 3.5 07:20:06 10° SE 07:25:09 62° NE 07:30:11 10° NNW
Cosmos 1674 3.9 07:23:45 18° ENE 07:25:14 23° E 07:28:16 10° SE
Cosmos 1758 3.5 07:21:54 10° SSW 07:25:59 76° W 07:30:00 10° N
Cosmos 2056 Rocket 3.7 07:22:06 10° SSW 07:27:36 85° WNW 07:33:05 10° NNE
Meteor 1-21 4.4 07:23:01 10° NNW 07:28:48 84° WSW 07:34:42 10° SSE
H-2A R/B 2.7 07:24:49 10° SSE 07:29:17 30° E 07:33:38 10° NNE
Cosmos 1420 Rocket 4.1 07:24:34 10° SSW 07:29:53 64° ESE 07:34:21 15° NE
ATLAS 5 CENTAUR R/B 2.5 07:24:34 10° SW 07:30:07 56° NW 07:34:46 10° NNE
Cosmos 1726 2.0 07:27:57 10° S 07:31:43 85° E 07:35:25 10° N
FALCON 9 DEB 3.6 07:29:56 10° WSW 07:33:26 55° NNW 07:35:25 23° NE
Feng Yun 1-1 Rocket 4.3 07:28:35 10° SSE 07:34:08 84° WSW 07:39:34 10° NNW
HJ-1C 4.2 07:31:55 10° SSE 07:34:59 30° E 07:36:07 24° NE
Cosmos 2237 Rocket 4.2 07:30:15 10° WNW 07:35:14 29° SW 07:40:15 10° SSE
CZ-2C R/B 4.1 07:31:13 10° N 07:36:01 73° WNW 07:40:54 10° SSW
ARGOS 4.0 07:32:24 10° SSE 07:37:08 29° E 07:40:26 16° NE
SL-16 R/B 3.0 07:32:33 10° NW 07:38:08 55° SW 07:43:48 10° SSE
Cosmos 1975 Rocket 3.8 07:33:48 10° NNW 07:38:12 57° WSW 07:42:42 10° S
YAOGAN 1 2.6 07:35:52 10° SSE 07:40:16 60° ENE 07:44:35 10° N
Cosmos 371 Rocket 3.4 07:35:44 10° SSW 07:40:41 82° WNW 07:45:17 12° NNE
Cosmos 1452 Rocket 3.7 07:41:33 10° SSW 07:46:50 58° ESE 07:49:59 24° NE
Cosmos 332 Rocket 3.7 07:42:38 10° SSW 07:47:33 84° ESE 07:51:02 19° NNE
USA 281 4.4 07:42:37 10° SSE 07:48:51 45° SW 07:55:03 10° WNW
Cosmos 1908 3.4 07:45:25 10° S 07:49:22 53° ESE 07:51:07 29° NE
Cosmos 1300 4.2 07:47:15 10° SSE 07:50:18 21° ESE 07:50:20 21° ESE
Cosmos 1932 4.3 07:48:15 10° NNW 07:54:19 66° NE 08:00:29 10° SE
Cosmos 1939 Rocket 3.9 07:50:56 10° S 07:54:51 48° WSW 07:58:47 10° NW
Meteor 1-16 Rocket 4.2 07:49:14 10° SSW 07:54:55 88° W 08:00:44 10° N
SL-4 R/B 2.8 07:52:13 10° W 07:55:23 31° NNW 07:56:34 24° N
Cosmos 1943 3.2 07:50:17 10° NNW 07:55:55 62° ENE 08:01:37 10° SE
Cosmos 1626 4.0 08:01:34 18° SE 08:01:34 18° SE 08:03:02 10° SE
FALCON 9 DEB 3.4 07:59:02 10° W 08:02:21 62° S 08:03:22 38° ESE
Cosmos 1241 Rocket 4.4 07:56:34 10° SW 08:02:55 86° SE 08:06:29 27° NE
Molniya-1 4.2 08:01:12 10° SSW 08:03:11 22° SSE 08:03:17 22° SE
Cosmos 1356 Rocket 3.3 07:59:47 10° SSW 08:03:58 88° E 08:06:05 28° NNE
Cosmos 1818 3.6 07:59:12 10° SW 08:04:38 77° NW 08:07:37 27° NNE
Cosmos 482 Debris 4.4 08:00:29 10° NW 08:05:44 54° NNE 08:06:27 46° ENE
USA 267 3.7 08:03:54 20° E 08:08:34 58° S 08:15:02 10° WSW
Meteor 2-5 Rocket 4.2 08:07:43 26° NNE 08:10:40 44° E 08:16:20 10° SSE
FALCON 9 DEB 3.4 08:09:10 10° W 08:12:29 60° S 08:13:07 48° SE
Cosmos 2369 Rocket 3.6 08:11:00 10° SW 08:16:06 36° WNW 08:21:10 10° N
KORONAS-FOTON 3.7 08:15:01 34° N 08:16:36 77° E 08:20:31 10° SSE
Okean-O 3.6 08:13:00 10° S 08:17:23 51° WSW 08:21:44 10° NW
Cosmos 304 Rocket 3.9 08:14:03 10° SSW 08:18:57 73° WNW 08:21:18 31° N
Cosmos 1697 Rocket 4.5 08:15:09 10° SSW 08:19:13 19° SSE 08:21:28 16° ESE
Cosmos 1726 Rocket 3.8 08:17:27 10° S 08:21:55 51° ESE 08:22:23 49° E
Cosmos 1025 Rocket 4.0 08:18:30 10° NNW 08:22:47 49° WSW 08:27:07 10° S
Cosmos 2195 Rocket 4.4 08:18:22 18° N 08:22:58 64° E 08:29:08 10° SSE
Cosmos 1603 3.8 08:18:58 10° NW 08:24:37 77° WSW 08:30:22 10° SSE
Cosmos 1606 Rocket 3.5 08:20:32 10° S 08:25:05 67° ESE 08:25:53 54° NE
Cosmos 2026 Rocket 4.0 08:22:07 26° NNE 08:25:35 58° E 08:31:41 10° SSE
Cosmos 1980 Rocket 4.3 08:23:15 10° S 08:26:38 16° SSE 08:29:22 12° ESE
Cosmos 1092 Rocket 3.9 08:22:35 10° N 08:28:57 78° E 08:35:25 10° SSE
Cosmos 1627 Rocket 4.4 08:25:39 23° NNE 08:29:35 64° E 08:35:47 10° SSE
Cosmos 1428 Rocket 4.4 08:29:25 32° NNE 08:32:15 61° E 08:38:22 10° SSE
SJ-6B 4.3 08:29:11 10° SSE 08:31:04 24° SE 08:31:04 24° SE
Cosmos 1953 4.4 08:36:08 10° SSW 08:39:38 27° W 08:43:06 10° NW
FALCON 9 DEB 3.9 08:37:57 10° WSW 08:40:41 49° SW 08:40:41 49° SW
BREEZE-M DEB (TANK) 4.5 08:36:44 10° NW 08:42:43 66° NNE 09:07:16 10° ESE
CSL-04 Rocket 3.9 08:38:50 10° SSE 08:44:11 69° WSW 08:49:30 10° NNW
CZ-2C R/B 3.8 08:41:14 10° S 08:45:54 49° WSW 08:50:37 10° NW
SL-24 R/B - RUBIN 2 4.5 08:44:08 10° SW 08:48:21 43° WNW 08:49:16 38° NNW
ERBS 4.2 08:46:12 10° WSW 08:48:28 25° WNW 08:48:28 25° WNW
Cosmos 1400 Rocket 4.0 08:45:24 10° S 08:48:00 32° SSE 08:48:00 32° SSE
CZ-4 R/B 3.7 08:46:45 10° S 08:50:13 25° WSW 08:53:43 10° WNW
Cosmos 1892 Rocket 4.3 08:51:27 41° SE 08:51:27 41° SE 08:54:43 10° SSE
Cosmos 2228 3.3 08:45:55 10° SSW 08:50:24 69° W 08:51:05 58° NNW
Ariane Rocket 2.9 08:46:49 10° SSE 08:51:51 64° E 08:51:51 64° E
Cosmos 1417 Rocket 4.5 08:46:59 10° S 08:53:19 67° ESE 08:54:32 55° NE
SL-14 R/B 4.1 08:55:36 45° SSE 08:55:36 45° SSE 08:58:33 10° SSE
Cosmos 1455 4.4 08:53:43 10° SSE 08:55:11 18° SSE 08:55:11 18° SSE
SeaSat 1 3.6 08:53:06 10° SSE 08:57:49 43° SW 09:02:30 10° WNW
Lacrosse 5 4.3 08:56:20 10° W 08:58:36 13° WNW 09:00:52 10° NNW
Cosmos 1674 4.3 08:58:27 19° NW 09:00:36 33° WSW 09:04:07 10° S
IRS-1A Rocket 4.2 09:01:26 10° SSE 09:07:21 78° ENE 09:08:19 62° N
H-2A R/B 3.1 09:04:05 10° S 09:08:52 43° WSW 09:13:33 10° NW
Cosmos 292 Rocket 3.9 09:04:17 10° SSW 09:08:44 65° SSE 09:08:44 65° SSE
OBJECT-B 3.7 09:06:17 10° SSE 09:06:31 12° SSE 09:06:31 12° SSE
SL-08 RB Rocket 4.2 09:08:30 10° S 09:13:13 60° WSW 09:14:21 46° WNW
Meteor 2-19 Rocket 4.4 09:13:32 65° E 09:13:32 65° E 09:19:38 10° SSE
Intercosmos 25 Rocket 4.5 09:05:59 10° NNW 09:13:55 77° W 09:18:42 10° S
Cosmos 1553 Rocket 4.0 09:10:16 10° SSW 09:16:30 80° W 09:17:45 59° N
ARGOS 3.9 09:12:23 10° S 09:17:39 52° WSW 09:21:57 15° NW
Cosmos 44 3.7 09:16:04 10° SW 09:19:57 53° S 09:19:57 53° S
Resurs 01 Rocket 3.5 09:18:59 10° SSE 09:20:37 21° SSE 09:20:37 21° SSE
Cosmos 1300 4.3 09:22:27 10° SSW 09:25:18 34° WSW 09:25:18 34° WSW
Cosmos 2058 Rocket 3.8 09:22:38 10° SSW 09:26:22 52° SW 09:26:22 52° SW
Cosmos 1048 Rocket 4.3 09:28:13 49° WNW 09:29:29 65° WSW 09:34:49 10° SSE
Cosmos 2266 Rocket 4.3 09:30:24 55° ESE 09:30:24 55° ESE 09:35:58 10° SSE
Cosmos 1331 Rocket 4.5 09:26:44 10° SSW 09:32:00 55° WNW 09:32:01 55° WNW
Cosmos 1626 4.2 09:36:03 28° SW 09:36:03 28° SW 09:38:32 10° S
Cosmos 1302 Rocket 4.3 09:32:38 10° SSW 09:37:12 66° SSW 09:37:12 66° SSW
Cosmos 2369 4.4 09:44:49 10° SSW 09:49:42 47° SSE 09:49:42 47° SSE
USA 267 3.1 09:51:14 84° N 09:51:24 86° NNW 09:58:05 10° WSW
SPOT 3 Rocket 4.3 09:52:37 10° SSE 09:56:31 50° S 09:56:31 50° S
Cosmos 1697 Rocket 3.3 09:58:37 10° SSW 10:03:13 53° S 10:03:13 53° S
Cosmos 1656 4.3 10:02:24 10° SSW 10:06:40 52° SW 10:06:40 52° SW
Meteor 2-10 Rocket 4.3 10:03:03 10° SSW 10:07:45 51° WSW 10:07:45 51° WSW
Cosmos 1980 Rocket 3.1 10:06:37 10° SSW 10:11:07 42° SSE 10:11:07 42° SSE
Cosmos 1655 Rocket 4.5 10:19:03 55° W 10:19:27 56° WSW 10:25:50 10° S
Cosmos 2322 Rocket 4.0 10:18:08 10° SSW 10:22:26 21° SE 10:22:44 21° SE
NOSS 3-2 (A) 4.5 10:33:06 48° ESE 10:33:06 48° ESE 10:38:06 10° SE
SL-16 R/B 3.8 10:31:39 10° SSW 10:36:04 28° SSE 10:36:04 28° SSE
Cosmos 2082 Rocket 4.4 10:42:25 16° SE 10:42:25 16° SE 10:43:35 10° SE
Resurs 01 Rocket 4.0 10:55:57 10° S 10:58:12 21° SSW 10:58:12 21° SSW
NOSS 3-2 (C) 4.5 11:13:11 50° SE 11:13:11 50° SE 11:18:16 10° SE
Resurs 1-4 Rocket 4.1 11:17:15 22° SE 11:17:15 22° SE 11:20:17 10° S
CENTAUR R/B 3.6 11:22:52 40° SE 11:22:52 40° SE 11:26:45 10° SE
Cosmos 1833 Rocket 4.3 11:26:04 30° SSE 11:26:04 30° SSE 11:28:55 10° SSE
Cosmos 2333 Rocket 4.4 11:24:19 10° SSW 11:28:25 19° SSE 11:29:50 18° SE
Terra 4.0 11:23:34 10° SSE 11:25:21 23° S 11:25:21 23° S
CZ-2D R/B 4.0 11:31:59 25° SSE 11:31:59 25° SSE 11:35:03 10° S
ATLAS 3B R/B 4.1 11:36:46 31° ESE 11:36:46 31° ESE 11:40:38 10° SE
Cosmos 2360 Rocket 3.7 11:40:24 10° SSW 11:44:15 32° SSE 11:44:15 32° SSE
